Temp
11 11 10 10 9 8 8 7 7 6 6 5 4 4 3 3 3 3 2 2 1 0
11 10 10 9 8 8 7 7 6 6 5 4 4 3 3 2 2 2 2 1 0 -0
10 9 9 8 8 7 6 6 5 5 4 4 3 3 2 2 2 1 1 -0 -1 -2
10 9 8 7 7 6 6 5 5 4 3 3 3 2 1 1 1 0 -0 -1 -3 -3
8 8 7 6 6 5 5 4 4 3 3 2 2 1 1 0 -0 -1 -2 -3 -4 -5
7 7 6 5 5 5 4 3 3 2 2 1 1 1 0 -1 -1 -2 -3 -4 -5 -5
6 6 5 5 4 4 3 2 2 2 1 1 0 -0 -1 -1 -2 -3 -4 -5 -5 -6
5 5 4 4 3 3 2 2 1 1 1 0 -0 -1 -2 -3 -4 -5 -5 -5 -6 -6
4 4 3 3 2 2 1 1 1 0 -0 -1 -1 -2 -2 -4 -5 -5 -6 -6 -6 -7
3 3 2 2 2 1 1 0 -0 -1 -1 -2 -2 -3 -4 -5 -6 -6 -7 -7 -7 -8
2 2 2 1 1 0 0 -1 -1 -1 -2 -2 -3 -4 -4 -6 -7 -7 -8 -8 -8 -8
2 1 1 0 0 -0 -1 -1 -2 -2 -3 -3 -4 -5 -6 -8 -8 -8 -8 -8 -8 -8
1 1 0 -0 -1 -1 -2 -2 -3 -3 -3 -4 -5 -6 -7 -8 -8 -8 -8 -8 -8 -8
0 -0 -1 -1 -2 -2 -2 -3 -3 -3 -4 -4 -6 -7 -8 -9 -8 -8 -8 -8 -8 -8
Height
1480 1482 1484 1484 1485 1485 1485 1484 1482 1480 1478 1475 1472 1469 1466 1463 1460 1456 1453 1449 1445 1440
1478 1480 1482 1482 1483 1483 1483 1481 1480 1478 1475 1472 1468 1465 1462 1458 1455 1451 1447 1443 1439 1435
1476 1478 1480 1480 1481 1480 1480 1479 1477 1474 1471 1468 1465 1461 1457 1454 1450 1446 1442 1437 1433 1429
1475 1476 1478 1478 1478 1478 1477 1475 1473 1471 1467 1464 1461 1457 1453 1449 1444 1440 1436 1432 1427 1423
1473 1474 1476 1476 1476 1475 1474 1472 1470 1467 1464 1460 1456 1452 1448 1443 1439 1435 1430 1426 1422 1417
1471 1473 1474 1474 1473 1472 1471 1469 1466 1463 1459 1455 1451 1447 1443 1439 1434 1429 1425 1420 1416 1411
1470 1471 1471 1471 1471 1469 1467 1465 1462 1459 1456 1452 1447 1442 1438 1433 1428 1424 1420 1415 1411 1406
1468 1469 1469 1469 1467 1466 1464 1462 1459 1455 1452 1447 1443 1437 1432 1427 1422 1418 1413 1410 1405 1401
1466 1466 1467 1466 1464 1463 1461 1459 1455 1451 1446 1442 1438 1433 1428 1422 1416 1412 1408 1403 1399 1394
1463 1464 1464 1463 1461 1460 1458 1455 1452 1448 1443 1438 1433 1428 1422 1417 1411 1406 1402 1397 1392 1387
1461 1461 1461 1460 1459 1456 1454 1451 1447 1443 1439 1433 1428 1422 1416 1411 1406 1401 1396 1391 1387 1382
1459 1459 1458 1457 1456 1453 1450 1447 1443 1439 1433 1427 1422 1416 1411 1406 1400 1395 1390 1386 1382 1378
1456 1456 1455 1454 1452 1450 1446 1443 1438 1434 1429 1423 1418 1412 1407 1403 1398 1391 1385 1381 1376 1372
1454 1453 1453 1451 1449 1446 1442 1438 1434 1428 1424 1419 1413 1408 1404 1400 1396 1390 1382 1376 1370 1366
Wind_Speed
16 13 12 9 7 5 6 9 12 15 16 16 16 17 19 21 23 25 26 27 28 28
16 14 12 10 7 5 7 10 13 15 16 17 18 19 21 24 26 27 27 28 28 28
16 14 11 8 6 5 8 11 14 16 17 17 18 20 23 25 26 27 28 28 29 30
15 13 10 7 6 7 10 13 15 17 17 18 20 22 24 25 27 28 29 29 32 34
14 11 8 6 6 9 12 14 15 16 17 19 21 23 25 27 27 29 31 31 32 34
12 9 7 6 8 10 12 14 14 15 18 21 23 25 26 28 29 30 29 30 32 35
10 8 7 7 8 10 12 13 14 16 20 22 24 26 28 30 31 30 29 31 33 34
10 8 7 7 8 11 11 12 15 19 21 23 25 28 30 30 29 29 31 32 33 32
9 7 7 8 9 10 11 13 17 21 23 25 26 28 29 28 29 31 31 31 29 30
8 7 7 9 10 10 12 16 19 22 24 26 28 29 29 27 28 29 30 30 32 30
6 6 7 9 9 10 14 19 21 23 26 28 29 29 29 29 28 29 29 26 26 29
5 6 8 8 9 13 17 20 23 25 28 29 29 28 28 25 28 29 27 26 26 28
5 7 7 8 11 16 20 22 25 27 27 27 28 28 26 23 25 29 30 32 33 33
6 6 7 9 14 19 22 24 27 28 27 27 28 28 24 21 24 29 32 34 34 40
Wind_Direction
190 196 203 213 226 256 297 321 330 334 332 328 326 324 325 326 325 323 322 321 318 315
198 203 209 216 229 262 302 319 324 325 323 322 323 325 324 323 323 322 322 319 320 320
201 205 214 223 243 280 307 317 319 320 321 323 323 322 323 324 324 322 323 324 322 320
205 210 218 230 257 293 311 317 319 320 322 321 323 324 324 325 325 326 324 324 322 320
209 214 224 242 276 304 314 317 319 320 322 324 324 324 327 326 326 325 324 323 321 321
212 219 231 259 291 307 313 317 319 322 325 325 327 327 327 325 326 324 323 322 321 321
217 224 244 274 296 309 316 319 322 325 327 328 327 327 326 326 324 324 322 320 318 319
221 233 258 279 300 314 319 322 327 328 327 328 327 328 327 326 324 322 320 317 316 318
224 243 263 286 308 316 317 324 328 329 330 330 327 326 325 327 324 321 319 318 318 317
228 249 276 302 312 314 321 327 330 331 330 329 328 329 330 330 325 315 314 315 317 319
232 264 294 307 310 318 324 329 332 331 330 329 331 331 331 333 324 320 321 324 325 325
249 285 300 302 310 320 326 330 331 332 331 331 333 334 337 335 331 333 334 334 332 330
277 295 296 303 315 325 329 330 329 330 332 333 334 340 341 335 333 332 334 333 331 333
286 285 293 310 322 328 328 328 330 331 333 336 342 344 345 337 333 331 328 324 328 331